Hourly Weather Barra de Santiago

Today, 8 May, Saturday

Time Temperature Precipitation Wind Pressure Humidity
00:00 +28°C° 0 mm 1 mps 759 mmHg 82%
01:00 +28°C° 0.4 mm 1 mps 758 mmHg 81%
02:00 +28°C° 0.4 mm 1 mps 758 mmHg 80%
03:00 +28°C° 0.4 mm 1 mps 758 mmHg 79%
04:00 +27°C° 0.3 mm 1 mps 758 mmHg 79%
05:00 +27°C° 0.3 mm 1 mps 758 mmHg 78%
06:00 +27°C° 0.3 mm 1 mps 758 mmHg 78%
07:00 +29°C° 0 mm 1 mps 759 mmHg 70%
08:00 +31°C° 0 mm 1 mps 759 mmHg 63%
09:00 +32°C° 0 mm 1 mps 759 mmHg 55%
10:00 +34°C° 0 mm 2 mps 759 mmHg 53%
11:00 +35°C° 0 mm 3 mps 758 mmHg 52%
12:00 +36°C° 0 mm 4 mps 758 mmHg 50%
13:00 +35°C° 0.1 mm 3 mps 758 mmHg 55%
14:00 +34°C° 0.1 mm 3 mps 757 mmHg 61%
15:00 +33°C° 0.1 mm 3 mps 757 mmHg 66%
16:00 +31°C° 0.3 mm 2 mps 757 mmHg 70%
17:00 +31°C° 0.3 mm 2 mps 757 mmHg 74%
18:00 +30°C° 0.3 mm 1 mps 758 mmHg 77%
19:00 +30°C° 0.2 mm 1 mps 758 mmHg 78%
20:00 +29°C° 0.2 mm 1 mps 758 mmHg 80%
21:00 +29°C° 0.2 mm 2 mps 759 mmHg 81%
22:00 +29°C° 0.1 mm 2 mps 759 mmHg 81%
23:00 +29°C° 0.1 mm 3 mps 759 mmHg 81%

Tomorrow, 9 May, Sunday

Time Temperature Precipitation Wind Pressure Humidity
00:00 +29°C° 0.1 mm 3 mps 758 mmHg 81%
01:00 +28°C° 0.5 mm 3 mps 758 mmHg 80%
02:00 +28°C° 0.5 mm 2 mps 758 mmHg 80%
03:00 +28°C° 0.5 mm 2 mps 757 mmHg 79%
04:00 +27°C° 0.7 mm 2 mps 758 mmHg 78%
05:00 +27°C° 0.7 mm 2 mps 758 mmHg 78%
06:00 +27°C° 0.7 mm 2 mps 759 mmHg 77%
07:00 +29°C° 0.2 mm 1 mps 759 mmHg 71%
08:00 +31°C° 0.2 mm 1 mps 759 mmHg 64%
09:00 +32°C° 0.2 mm 1 mps 760 mmHg 58%
10:00 +34°C° 0.1 mm 2 mps 759 mmHg 58%
11:00 +34°C° 0.1 mm 2 mps 759 mmHg 58%
12:00 +35°C° 0.1 mm 3 mps 758 mmHg 57%
13:00 +34°C° 0.1 mm 3 mps 758 mmHg 59%
14:00 +34°C° 0.1 mm 3 mps 757 mmHg 60%
15:00 +34°C° 0.1 mm 3 mps 757 mmHg 61%
16:00 +33°C° 0.1 mm 3 mps 757 mmHg 65%
17:00 +31°C° 0.1 mm 2 mps 757 mmHg 69%
18:00 +30°C° 0.1 mm 2 mps 757 mmHg 73%
19:00 +30°C° 0.1 mm 2 mps 758 mmHg 76%
20:00 +29°C° 0.1 mm 2 mps 758 mmHg 79%
21:00 +28°C° 0.1 mm 2 mps 758 mmHg 82%
22:00 +28°C° 0 mm 2 mps 758 mmHg 82%
23:00 +28°C° 0 mm 2 mps 758 mmHg 83%

Day after tomorrow, 10 May, Monday

Time Temperature Precipitation Wind Pressure Humidity
00:00 +28°C° 0 mm 2 mps 757 mmHg 83%
01:00 +28°C° 0 mm 2 mps 757 mmHg 83%
02:00 +27°C° 0 mm 2 mps 757 mmHg 82%
03:00 +27°C° 0 mm 1 mps 757 mmHg 82%
04:00 +27°C° 0.2 mm 1 mps 757 mmHg 82%
05:00 +27°C° 0.2 mm 1 mps 758 mmHg 81%
06:00 +27°C° 0.2 mm 1 mps 758 mmHg 81%
07:00 +29°C° 0 mm 1 mps 758 mmHg 74%
08:00 +31°C° 0 mm 1 mps 759 mmHg 68%
09:00 +33°C° 0 mm 1 mps 759 mmHg 61%
10:00 +34°C° 0 mm 2 mps 759 mmHg 60%
11:00 +34°C° 0 mm 2 mps 758 mmHg 59%
12:00 +35°C° 0 mm 3 mps 758 mmHg 57%
13:00 +35°C° 0 mm 3 mps 757 mmHg 58%
14:00 +35°C° 0 mm 3 mps 757 mmHg 59%
15:00 +35°C° 0 mm 3 mps 756 mmHg 59%
16:00 +34°C° 0 mm 3 mps 756 mmHg 63%
17:00 +33°C° 0 mm 3 mps 756 mmHg 67%
18:00 +31°C° 0 mm 3 mps 757 mmHg 71%
19:00 +30°C° 0 mm 3 mps 757 mmHg 74%
20:00 +29°C° 0 mm 2 mps 757 mmHg 77%
21:00 +29°C° 0 mm 2 mps 758 mmHg 80%
22:00 +28°C° 0.3 mm 3 mps 758 mmHg 82%
23:00 +28°C° 0.3 mm 3 mps 757 mmHg 84%

11 May, Tuesday

Time Temperature Precipitation Wind Pressure Humidity
00:00 +28°C° 0.3 mm 3 mps 757 mmHg 86%
01:00 +28°C° 0 mm 3 mps 757 mmHg 84%
02:00 +28°C° 0 mm 3 mps 757 mmHg 83%
03:00 +28°C° 0 mm 2 mps 756 mmHg 82%
04:00 +28°C° 0 mm 2 mps 757 mmHg 81%
05:00 +28°C° 0 mm 2 mps 757 mmHg 81%
06:00 +28°C° 0 mm 1 mps 757 mmHg 81%
07:00 +29°C° 0 mm 1 mps 758 mmHg 74%
08:00 +31°C° 0 mm 1 mps 758 mmHg 67%
09:00 +33°C° 0 mm 1 mps 758 mmHg 59%
10:00 +35°C° 0 mm 2 mps 758 mmHg 57%
11:00 +36°C° 0 mm 3 mps 758 mmHg 54%
12:00 +37°C° 0 mm 4 mps 757 mmHg 52%
13:00 +36°C° 0 mm 4 mps 757 mmHg 55%
14:00 +36°C° 0 mm 4 mps 756 mmHg 58%
15:00 +35°C° 0 mm 3 mps 756 mmHg 60%
16:00 +34°C° 0 mm 3 mps 756 mmHg 65%
17:00 +33°C° 0 mm 3 mps 756 mmHg 70%
18:00 +31°C° 0 mm 3 mps 756 mmHg 75%
19:00 +31°C° 0.1 mm 2 mps 757 mmHg 78%
20:00 +30°C° 0.1 mm 2 mps 757 mmHg 81%
21:00 +29°C° 0.1 mm 2 mps 757 mmHg 85%
22:00 +29°C° 0.3 mm 2 mps 757 mmHg 85%
23:00 +29°C° 0.3 mm 2 mps 757 mmHg 86%

12 May, Wednesday

Time Temperature Precipitation Wind Pressure Humidity
00:00 +28°C° 0.3 mm 2 mps 757 mmHg 87%
01:00 +28°C° 1.2 mm 2 mps 757 mmHg 87%
02:00 +28°C° 1.2 mm 1 mps 757 mmHg 88%
03:00 +28°C° 1.2 mm 1 mps 757 mmHg 88%
04:00 +28°C° 0.4 mm 1 mps 757 mmHg 85%
05:00 +28°C° 0.4 mm 1 mps 757 mmHg 83%
06:00 +28°C° 0.4 mm 1 mps 758 mmHg 80%
07:00 +30°C° 0 mm 1 mps 758 mmHg 74%
08:00 +32°C° 0 mm 1 mps 758 mmHg 67%
09:00 +33°C° 0 mm 1 mps 758 mmHg 61%
10:00 +35°C° 0 mm 2 mps 758 mmHg 59%
11:00 +36°C° 0 mm 3 mps 757 mmHg 57%
12:00 +36°C° 0 mm 4 mps 757 mmHg 56%
13:00 +36°C° 0.2 mm 3 mps 757 mmHg 58%
14:00 +35°C° 0.2 mm 3 mps 756 mmHg 61%
15:00 +35°C° 0.2 mm 3 mps 756 mmHg 64%
16:00 +34°C° 0.1 mm 2 mps 756 mmHg 68%
17:00 +32°C° 0.1 mm 2 mps 756 mmHg 71%
18:00 +31°C° 0.1 mm 1 mps 756 mmHg 75%
19:00 +31°C° 0.4 mm 1 mps 757 mmHg 77%
20:00 +30°C° 0.4 mm 1 mps 757 mmHg 79%
21:00 +30°C° 0.4 mm 2 mps 757 mmHg 82%
22:00 +29°C° 1.5 mm 1 mps 757 mmHg 83%
23:00 +29°C° 1.5 mm 1 mps 757 mmHg 85%

13 May, Thursday

Time Temperature Precipitation Wind Pressure Humidity
00:00 +28°C° 1.5 mm 1 mps 758 mmHg 87%
01:00 +28°C° 4 mm 2 mps 757 mmHg 87%
02:00 +28°C° 4 mm 3 mps 757 mmHg 87%
03:00 +28°C° 4 mm 4 mps 757 mmHg 87%
04:00 +28°C° 0.2 mm 3 mps 757 mmHg 88%
05:00 +28°C° 0.2 mm 2 mps 758 mmHg 88%
06:00 +28°C° 0.2 mm 1 mps 758 mmHg 89%
07:00 +29°C° 0.2 mm 1 mps 758 mmHg 85%
08:00 +30°C° 0.2 mm 1 mps 759 mmHg 80%
09:00 +31°C° 0.2 mm 2 mps 759 mmHg 76%
10:00 +31°C° 0.6 mm 2 mps 759 mmHg 74%
11:00 +32°C° 0.6 mm 2 mps 759 mmHg 72%
12:00 +32°C° 0.6 mm 2 mps 759 mmHg 70%
13:00 +32°C° 0.4 mm 2 mps 758 mmHg 70%
14:00 +32°C° 0.4 mm 2 mps 757 mmHg 71%
15:00 +32°C° 0.4 mm 2 mps 757 mmHg 71%
16:00 +31°C° 0 mm 2 mps 757 mmHg 75%
17:00 +31°C° 0 mm 2 mps 757 mmHg 78%
18:00 +30°C° 0 mm 1 mps 757 mmHg 81%
19:00 +29°C° 0.5 mm 1 mps 757 mmHg 84%
20:00 +29°C° 0.5 mm 1 mps 758 mmHg 86%
21:00 +28°C° 0.5 mm 1 mps 758 mmHg 88%
22:00 +28°C° 0.2 mm 1 mps 758 mmHg 88%
23:00 +28°C° 0.2 mm 1 mps 758 mmHg 88%
Show more